TimeMDT,TemperatureF,Dew PointF,Humidity,Sea Level PressureIn,VisibilityMPH,Wind Direction,Wind SpeedMPH,Gust SpeedMPH,PrecipitationIn,Events,Conditions,WindDirDegrees,DateUTC
12:53 AM,37.0,35.1,93,30.18,10.0,SW,6.9,-,N/A,,Overcast,230,2012-10-09 06:53:00
2:53 AM,36.0,34.0,93,30.18,10.0,SSW,9.2,-,N/A,,Overcast,210,2012-10-09 08:53:00
3:53 AM,36.0,33.1,89,30.19,10.0,SSW,8.1,-,N/A,,Overcast,210,2012-10-09 09:53:00
4:53 AM,36.0,33.1,89,30.19,10.0,SSW,10.4,-,N/A,,Overcast,210,2012-10-09 10:53:00
5:53 AM,37.0,33.1,86,30.19,10.0,South,6.9,-,N/A,,Overcast,190,2012-10-09 11:53:00
6:53 AM,37.0,33.1,86,30.18,10.0,South,8.1,-,N/A,,Overcast,190,2012-10-09 12:53:00
7:53 AM,37.0,33.1,86,30.18,10.0,SSW,8.1,-,N/A,,Overcast,200,2012-10-09 13:53:00
8:53 AM,39.0,34.0,82,30.19,10.0,SW,3.5,-,N/A,,Overcast,230,2012-10-09 14:53:00
9:53 AM,42.1,35.1,76,30.18,10.0,SSW,9.2,-,N/A,,Scattered Clouds,200,2012-10-09 15:53:00
10:53 AM,46.0,32.0,58,30.17,10.0,SSW,5.8,-,N/A,,Clear,210,2012-10-09 16:53:00
11:53 AM,50.0,33.1,52,30.16,10.0,SW,8.1,-,N/A,,Clear,220,2012-10-09 17:53:00
12:53 PM,53.1,30.0,41,30.14,10.0,SW,12.7,-,N/A,,Clear,230,2012-10-09 18:53:00
1:53 PM,55.0,28.0,35,30.12,10.0,SW,8.1,-,N/A,,Clear,230,2012-10-09 19:53:00
2:53 PM,57.9,30.0,35,30.10,10.0,WSW,8.1,-,N/A,,Clear,240,2012-10-09 20:53:00
3:53 PM,60.1,25.0,26,30.08,10.0,West,8.1,-,N/A,,Clear,260,2012-10-09 21:53:00
4:53 PM,59.0,25.0,27,30.08,10.0,WSW,6.9,-,N/A,,Clear,250,2012-10-09 22:53:00
5:53 PM,55.0,27.0,34,30.08,10.0,SSW,6.9,-,N/A,,Clear,210,2012-10-09 23:53:00
6:53 PM,48.0,30.0,50,30.09,10.0,South,6.9,-,N/A,,Clear,170,2012-10-10 00:53:00
7:53 PM,45.0,28.9,53,30.09,10.0,South,9.2,-,N/A,,Clear,170,2012-10-10 01:53:00
8:53 PM,46.0,28.0,50,30.07,10.0,South,9.2,-,N/A,,Clear,170,2012-10-10 02:53:00
9:53 PM,46.0,28.9,51,30.05,10.0,South,11.5,-,N/A,,Clear,190,2012-10-10 03:53:00
10:53 PM,45.0,30.9,58,30.03,10.0,South,11.5,-,N/A,,Clear,190,2012-10-10 04:53:00
11:53 PM,43.0,30.9,62,30.02,10.0,SSW,10.4,-,N/A,,Clear,200,2012-10-10 05:53:00